Time,TemperatureF,DewpointF,PressureIn,WindDirection,WindDirectionDegrees,WindSpeedMPH,WindSpeedGustMPH,Humidity,HourlyPrecipIn,Conditions,Clouds,dailyrainin,SoftwareType,DateUTC
2013-05-31 00:12:00,48.4,25.8,29.73,ESE,112,0.0,-999.0,41,-99.99,,,0.00,Acu-Link.com,2013-05-31 06:12:00,
2013-05-31 00:31:00,48.2,26.2,29.72,East,90,1.1,-999.0,42,-99.99,,,0.00,Acu-Link.com,2013-05-31 06:31:00,
2013-05-31 00:49:00,49.5,25.6,29.73,East,90,3.7,-999.0,39,-99.99,,,0.00,Acu-Link.com,2013-05-31 06:49:00,
2013-05-31 01:04:00,49.8,25.9,29.74,NE,45,1.7,-999.0,39,-99.99,,,0.00,Acu-Link.com,2013-05-31 07:04:00,
2013-05-31 01:19:00,48.9,26.8,29.72,SW,225,0.0,-999.0,42,-99.99,,,0.00,Acu-Link.com,2013-05-31 07:19:00,
2013-05-31 01:35:00,48.4,26.4,29.74,SW,225,0.0,-999.0,42,-99.99,,,0.00,Acu-Link.com,2013-05-31 07:35:00,
2013-05-31 01:51:00,47.5,28.8,29.73,NW,315,0.0,-999.0,48,-99.99,,,0.00,Acu-Link.com,2013-05-31 07:51:00,
2013-05-31 02:08:00,46.8,28.7,29.72,NNE,22,2.7,-999.0,49,-99.99,,,0.00,Acu-Link.com,2013-05-31 08:08:00,
2013-05-31 02:30:00,46.8,28.7,29.72,North,0,1.7,-999.0,49,-99.99,,,0.00,Acu-Link.com,2013-05-31 08:30:00,
2013-05-31 02:45:00,45.5,28.0,29.72,NW,315,0.0,-999.0,50,-99.99,,,0.00,Acu-Link.com,2013-05-31 08:45:00,
2013-05-31 03:00:00,44.4,26.9,29.71,NE,45,0.0,-999.0,50,-99.99,,,0.00,Acu-Link.com,2013-05-31 09:00:00,
2013-05-31 03:15:00,43.7,27.2,29.72,South,180,0.0,-999.0,52,-99.99,,,0.00,Acu-Link.com,2013-05-31 09:15:00,
2013-05-31 03:31:00,43.5,27.1,29.73,SSW,202,0.0,-999.0,52,-99.99,,,0.00,Acu-Link.com,2013-05-31 09:31:00,
2013-05-31 08:37:00,56.5,33.7,29.80,South,180,7.8,-999.0,42,-99.99,,,0.00,Acu-Link.com,2013-05-31 14:37:00,
2013-05-31 08:52:00,58.3,34.7,29.79,SW,225,6.3,-999.0,41,-99.99,,,0.00,Acu-Link.com,2013-05-31 14:52:00,
2013-05-31 09:09:00,57.7,33.5,29.81,WSW,247,4.2,-999.0,40,-99.99,,,0.00,Acu-Link.com,2013-05-31 15:09:00,
2013-05-31 09:25:00,57.0,34.1,29.80,West,270,3.7,-999.0,42,-99.99,,,0.00,Acu-Link.com,2013-05-31 15:25:00,
2013-05-31 09:40:00,57.4,33.3,29.79,ESE,112,3.2,-999.0,40,-99.99,,,0.00,Acu-Link.com,2013-05-31 15:40:00,
2013-05-31 09:55:00,58.1,34.5,29.78,SSE,157,9.4,-999.0,41,-99.99,,,0.00,Acu-Link.com,2013-05-31 15:55:00,
2013-05-31 10:11:00,58.1,32.6,29.79,North,0,6.3,-999.0,38,-99.99,,,0.00,Acu-Link.com,2013-05-31 16:11:00,
2013-05-31 10:28:00,59.4,27.1,29.79,South,180,4.7,-999.0,29,-99.99,,,0.00,Acu-Link.com,2013-05-31 16:28:00,
2013-05-31 10:44:00,60.8,22.8,29.78,NE,45,5.3,-999.0,23,-99.99,,,0.00,Acu-Link.com,2013-05-31 16:44:00,
2013-05-31 11:01:00,59.7,18.6,29.78,West,270,8.9,-999.0,20,-99.99,,,0.00,Acu-Link.com,2013-05-31 17:01:00,
2013-05-31 11:16:00,62.1,20.6,29.78,SSW,202,6.8,-999.0,20,-99.99,,,0.00,Acu-Link.com,2013-05-31 17:16:00,
2013-05-31 11:32:00,62.8,-39.2,29.79,WSW,247,11.9,-999.0,1,-99.99,,,0.00,Acu-Link.com,2013-05-31 17:32:00,
2013-05-31 11:47:00,62.4,9.1,29.79,West,270,8.3,-999.0,12,-99.99,,,0.00,Acu-Link.com,2013-05-31 17:47:00,
2013-05-31 12:02:00,63.5,-38.7,29.79,WSW,247,8.3,-999.0,1,-99.99,,,0.00,Acu-Link.com,2013-05-31 18:02:00,
2013-05-31 12:17:00,61.5,-20.1,29.79,SSE,157,11.9,-999.0,3,-99.99,,,0.00,Acu-Link.com,2013-05-31 18:17:00,
2013-05-31 12:32:00,63.1,-39.0,29.79,NNW,337,8.9,-999.0,1,-99.99,,,0.00,Acu-Link.com,2013-05-31 18:32:00,
2013-05-31 12:48:00,63.1,-39.0,29.80,WSW,247,4.7,-999.0,1,-99.99,,,0.00,Acu-Link.com,2013-05-31 18:48:00,
2013-05-31 13:03:00,63.5,-38.7,29.79,West,270,8.3,-999.0,1,-99.99,,,0.00,Acu-Link.com,2013-05-31 19:03:00,
2013-05-31 13:32:00,66.2,-37.1,29.78,South,180,4.7,-999.0,1,-99.99,,,0.00,Acu-Link.com,2013-05-31 19:32:00,
2013-05-31 14:09:00,66.2,-37.1,29.78,NNE,22,5.8,-999.0,1,-99.99,,,0.00,Acu-Link.com,2013-05-31 20:09:00,
2013-05-31 14:27:00,65.5,-37.5,29.77,South,180,16.6,-999.0,1,-99.99,,,0.00,Acu-Link.com,2013-05-31 20:27:00,
2013-05-31 14:43:00,65.7,-37.4,29.77,North,0,10.9,-999.0,1,-99.99,,,0.00,Acu-Link.com,2013-05-31 20:43:00,
2013-05-31 14:58:00,63.3,-38.9,29.79,ENE,67,5.3,-999.0,1,-99.99,,,0.00,Acu-Link.com,2013-05-31 20:58:00,
2013-05-31 15:14:00,64.6,-38.1,29.80,West,270,11.4,-999.0,1,-99.99,,,0.00,Acu-Link.com,2013-05-31 21:14:00,
2013-05-31 15:30:00,64.4,-38.2,29.78,WNW,292,7.8,-999.0,1,-99.99,,,0.00,Acu-Link.com,2013-05-31 21:30:00,
2013-05-31 15:45:00,65.8,-37.3,29.78,WSW,247,7.8,-999.0,1,-99.99,,,0.00,Acu-Link.com,2013-05-31 21:45:00,
2013-05-31 16:00:00,64.9,-37.9,29.78,South,180,4.7,-999.0,1,-99.99,,,0.00,Acu-Link.com,2013-05-31 22:00:00,
2013-05-31 16:15:00,64.0,-38.4,29.77,South,180,8.3,-999.0,1,-99.99,,,0.00,Acu-Link.com,2013-05-31 22:15:00,
2013-05-31 16:30:00,63.5,-38.7,29.78,WNW,292,9.4,-999.0,1,-99.99,,,0.00,Acu-Link.com,2013-05-31 22:30:00,
2013-05-31 16:46:00,63.3,-38.9,29.78,ESE,112,6.3,-999.0,1,-99.99,,,0.00,Acu-Link.com,2013-05-31 22:46:00,
2013-05-31 17:01:00,64.6,-38.1,29.79,SE,135,4.7,-999.0,1,-99.99,,,0.00,Acu-Link.com,2013-05-31 23:01:00,
2013-05-31 17:16:00,62.8,-39.2,29.79,SSE,157,2.7,-999.0,1,-99.99,,,0.00,Acu-Link.com,2013-05-31 23:16:00,
2013-05-31 17:35:00,63.1,-39.0,29.80,SSE,157,5.8,-999.0,1,-99.99,,,0.00,Acu-Link.com,2013-05-31 23:35:00,
2013-05-31 17:52:00,63.0,-39.0,29.80,SSE,157,5.8,-999.0,1,-99.99,,,0.00,Acu-Link.com,2013-05-31 23:52:00,
2013-05-31 18:08:00,62.6,-39.3,29.79,ESE,112,2.7,-999.0,1,-99.99,,,0.00,Acu-Link.com,2013-06-01 00:08:00,
2013-05-31 18:23:00,60.6,-40.5,29.79,NNW,337,6.8,-999.0,1,-99.99,,,0.00,Acu-Link.com,2013-06-01 00:23:00,
2013-05-31 18:38:00,59.5,-41.2,29.79,South,180,9.9,-999.0,1,-99.99,,,0.00,Acu-Link.com,2013-06-01 00:38:00,
2013-05-31 18:53:00,58.6,-41.7,29.79,West,270,5.3,-999.0,1,-99.99,,,0.00,Acu-Link.com,2013-06-01 00:53:00,
2013-05-31 19:09:00,57.7,-42.3,29.79,SSE,157,5.8,-999.0,1,-99.99,,,0.00,Acu-Link.com,2013-06-01 01:09:00,
2013-05-31 19:25:00,55.9,-43.3,29.80,SSW,202,8.3,-999.0,1,-99.99,,,0.00,Acu-Link.com,2013-06-01 01:25:00,
2013-05-31 19:40:00,55.8,-43.4,29.82,South,180,3.7,-999.0,1,-99.99,,,0.00,Acu-Link.com,2013-06-01 01:40:00,
2013-05-31 19:56:00,54.5,-44.2,29.80,SSE,157,2.2,-999.0,1,-99.99,,,0.00,Acu-Link.com,2013-06-01 01:56:00,
2013-05-31 20:11:00,54.3,-44.3,29.81,West,270,3.7,-999.0,1,-99.99,,,0.00,Acu-Link.com,2013-06-01 02:11:00,
2013-05-31 20:28:00,52.7,-45.3,29.81,SE,135,1.7,-999.0,1,-99.99,,,0.00,Acu-Link.com,2013-06-01 02:28:00,
2013-05-31 20:47:00,50.9,10.1,29.82,South,180,0.0,-999.0,19,-99.99,,,0.00,Acu-Link.com,2013-06-01 02:47:00,
2013-05-31 21:03:00,46.8,11.9,29.83,SW,225,0.0,-999.0,24,-99.99,,,0.00,Acu-Link.com,2013-06-01 03:03:00,
2013-05-31 21:18:00,45.9,17.0,29.84,NW,315,2.2,-999.0,31,-99.99,,,0.00,Acu-Link.com,2013-06-01 03:18:00,
2013-05-31 21:33:00,45.7,18.3,29.85,NNW,337,3.7,-999.0,33,-99.99,,,0.00,Acu-Link.com,2013-06-01 03:33:00,
2013-05-31 21:49:00,45.1,19.1,29.85,NNE,22,3.7,-999.0,35,-99.99,,,0.00,Acu-Link.com,2013-06-01 03:49:00,
2013-05-31 22:04:00,43.0,18.5,29.87,ENE,67,1.1,-999.0,37,-99.99,,,0.00,Acu-Link.com,2013-06-01 04:04:00,
2013-05-31 22:19:00,40.8,20.6,29.88,WSW,247,1.7,-999.0,44,-99.99,,,0.00,Acu-Link.com,2013-06-01 04:19:00,
2013-05-31 22:34:00,38.8,22.7,29.89,NW,315,0.0,-999.0,52,-99.99,,,0.00,Acu-Link.com,2013-06-01 04:34:00,
2013-05-31 22:50:00,38.3,18.8,29.88,ENE,67,1.7,-999.0,45,-99.99,,,0.00,Acu-Link.com,2013-06-01 04:50:00,
2013-05-31 23:05:00,38.7,19.2,29.88,SSW,202,1.1,-999.0,45,-99.99,,,0.00,Acu-Link.com,2013-06-01 05:05:00,
2013-05-31 23:20:00,37.9,20.9,29.89,WSW,247,1.1,-999.0,50,-99.99,,,0.00,Acu-Link.com,2013-06-01 05:20:00,
2013-05-31 23:35:00,37.6,17.7,29.89,SSW,202,3.7,-999.0,44,-99.99,,,0.00,Acu-Link.com,2013-06-01 05:35:00,
2013-05-31 23:51:00,36.9,17.0,29.90,SW,225,0.0,-999.0,44,-99.99,,,0.00,Acu-Link.com,2013-06-01 05:51:00,